Regional Weather Roundup
Issued by NWS Charleston, SC

Current Version | Previous Version | Graphics & Text | Print | Product List | Glossary On
Versions: 1 2 3 4 5 6 7 8 9 10 11 12 13 14 15 16 17 18 19 20 21 22 23 24 25 26 27 28 29 30 31 32 33 34 35 36 37 38 39 40 41 42 43 44 45 46 47 48 49 50
003
ASUS42 KCHS 291728
RWRCHS

REGIONAL WEATHER ROUNDUP
NATIONAL WEATHER SERVICE CHARLESTON SC
100 PM EDT FRI JUL 29 2016

NOTE: "FAIR" INDICATES FEW OR NO CLOUDS BELOW 12,000 FEET WITH NO
SIGNIFICANT WEATHER AND/OR OBSTRUCTIONS TO VISIBILITY.

NOT ALL STATIONS ARE QUALITY CONTROLLED. USE DATA WITH CAUTION...
ESPECIALLY DEWPOINT OBSERVATIONS.

SCZ027-030-031-034>040-042>050-291800-
...SOUTHEAST SOUTH CAROLINA...

CITY           SKY/WX    TMP DP  RH WIND       PRES   REMARKS
N CHARLESTON   MOSUNNY   95  68  41 W16G23    29.96F HX  99
WATERFRONT PRK   N/A     93  71  48 W7        29.95F HX 100
MOUNT PLEASANT FAIR      93  70  46 W13G20    29.95F HX  99
JOHNS ISLAND   FAIR      97  70  41 W14       29.96S HX 103
PINOPOLIS        N/A     90  73  58 W17       29.87F HX  98
MONCKS CORNER  FAIR      91  63  38 W7        29.94F HX  92
SUMMERVILLE    FAIR      97  68  38 W14       29.96F HX 101
BEAUFORT MCAS  MOSUNNY   97  69  40 SW16G23   29.98F HX 103
BEAUFORT ARPT  FAIR      97  70  41 W10       29.97F HX 103
HILTON HEAD IS SUNNY     99  72  41 W12       29.99F HX 107
WALTERBORO     SUNNY     97  64  34 W12G18    29.97F HX  99
ALLENDALE      FAIR      95  68  41 W10G17    29.97F HX  99

...SOUTHERN MIDLANDS AND PEE DEE...

CITY           SKY/WX    TMP DP  RH WIND       PRES   REMARKS
GEORGETOWN     FAIR      91  70  49 W15G23    29.94F HX  97
KINGSTREE      FAIR      93  70  46 W8G16     29.94S HX  99
ORANGEBURG     MOSUNNY   94  71  47 W15       29.97S HX 101
BARNWELL       NOT AVBL
AIKEN          FAIR      91  68  46 SW13G24   30.01F HX  95
MANNING        FAIR      91  70  49 SW10G22   29.94F HX  97
COLUMBIA       MOSUNNY   95  69  42 NW10G20   29.94F HX 100
SUMTER         MOSUNNY   92  70  47 W10G17    29.92S HX  98
FLORENCE       PTSUNNY   89  72  56 NW8       29.93F HX  96
MYRTLE BEACH   NOT AVBL
N MYRTLE BEACH MOSUNNY   93  72  50 W10       29.91F HX 101

$$

GAZ063-065-086>088-099>101-113>116-118-119-134>141-150-291800-
...SOUTHEAST GEORGIA...

CITY           SKY/WX    TMP DP  RH WIND       PRES   REMARKS
SAVANNAH ARPT  MOSUNNY   95  70  44 W6        29.99F HX 101
HUNTER AAF     SUNNY     95  76  53 W12       29.97F HX 108
FORT STEWART   MOSUNNY   94  69  44 NW13      29.98F HX  99
STATESBORO     MOSUNNY   94  75  53 W7        30.00F HX 106
SYLVANIA       NOT AVBL
CLAXTON        FAIR      96  71  45 SW10G17   30.00F HX 103

...CSRA...CENTRAL AND FAR SOUTHEAST GEORGIA...

CITY           SKY/WX    TMP DP  RH WIND       PRES   REMARKS
THOMSON        NOT AVBL
AUGUSTA-BUSH   MOSUNNY   97  67  37 NW13G22   29.97S HX 101
AUGUSTA-DANIEL MOSUNNY   94  68  42 W8G18     30.00S HX  98
SWAINSBORO     FAIR      95  68  41 W13G18    30.01F HX  99
VIDALIA        MOSUNNY   97  64  34 W14G21    30.01F HX  99
EASTMAN        PTSUNNY   92  58  31 NW6       30.05F HX  91
HAZLEHURST     FAIR      97  68  38 CALM      30.01F HX 102
ALMA           PTSUNNY   93  69  45 W8        30.02F HX  98
WAYCROSS       MOSUNNY  100  74  42 SW6       30.02F HX 112
JESUP          FAIR      97  75  49 W10       30.00F HX 109
BAXLEY         FAIR      95  73  49 W7        30.01F HX 105
BRUNSWICK      MOSUNNY   97  72  44 W12G20    30.02S HX 105
SAINT SIMONS   SUNNY     96  69  41 SW9       30.01F HX 102

$$

SCZ027-028-034-036>038-045-046-048>050-GAZ119-141-291800-
...LAKE AND SUPPLEMENTAL COASTAL OBSERVATIONS...

STATION/POSITION TIME  TEMP    WIND        PRES    WAVE   SWELL
                       AIR SEA DIR/SP/G            HT/PER HT/PER/DIR
                 (UTC) (F)     (DEG/KT/KT) (MB)    (FT/S) (FT/S/D)
WINYAH BAY       1645   92     260/ 11     1013.0F
LAKE MURRAY      1600   87     260/ 10/ 14 1013.9F
ACE BASIN NERRS  1600   92     300/  4     1015.0F
FORT PULASKI     1700   90 87  290/  8/ 12 1016.0F
SAPELO ISLAND    1700   94     230/  8     1016.0S

$$

ANZ835-935-AMZ111-154-330-350-352-354-370-450-454-472-291800-
...C-MAN AND BUOY OBSERVATIONS...

STATION/POSITION TIME  TEMP    WIND        PRES    WAVE   SWELL
                       AIR SEA DIR/SP/G            HT/PER HT/PER/DIR
                 (UTC) (F)     (DEG/KT/KT) (MB)    (FT/S) (FT/S/D)
BUOY 41004       1650   85 85  230/ 12/ 14 1014.6F   4/ 6   2/210/ 6
BUOY 41008       1650   86 87  250/  4/  6 1016.3F   2/ 5   2/150/ 5
FOLLY BEACH CMAN 1700   95     270/  8/ 12 1014.7F
CAPERS NEARSHORE 1708   89 85  260/ 12/ 17 1014.0F
FRIPP NEARSHORE  1708   88 88  250/ 12/ 16 1014.6F


STATION/POSITION TIME  TEMP    WIND        PRES    WAVE   SWELL
                       AIR SEA DIR/SP/G            HT/PER HT/PER/DIR
                 (UTC) (F)     (DEG/KT/KT) (MB)    (FT/S) (FT/S/D)
5E ST. MARYS GA  1701      87                N/A     1/ 4
FRYING PAN BUOY  1700   85 85  230/ 14/ 17 1013.6F
BUOY 41025       1650   86 85  220/ 17/ 21 1012.3F   3/ 6   2/150/ 8
CAPE LOOKOUT NC  1700   88     210/ 12/ 15 1012.3F
BUOY 41002       1650   85 85  240/ 10/ 12 1016.3F   3/ 6   3/250/ 6
BUOY 41010       1620   85 87  270/ 10/ 12 1018.1S
ST AUGUSTINE FL  1700   84 86  100/  9/  9 1018.3F


$$




USA.gov is the U.S. government's official web portal to all federal, state and local government web resources and services.